• în România
  • Lista ţărilor
  • Pe 7 zile
  • Temperatura apei
  • Hartă satelitară
  • Meteo pe hartă
  • Widget-uri
  • user-avatar
    Intrare

    Meteo pe oră la Muravino

    Astăzi, 16 Iulie, Luni

    Timp Temperatura Precipitaţii Vânt Presiune Umiditate
    00:00 +19°C° 0 mm 1 m/s 745 mmHg 87%
    01:00 +19°C° 0 mm 1 m/s 745 mmHg 89%
    02:00 +18°C° 0 mm 1 m/s 745 mmHg 90%
    03:00 +19°C° 0 mm 1 m/s 745 mmHg 89%
    04:00 +19°C° 0 mm 1 m/s 745 mmHg 88%
    05:00 +20°C° 0 mm 1 m/s 745 mmHg 86%
    06:00 +21°C° 0 mm 2 m/s 745 mmHg 78%
    07:00 +24°C° 0 mm 2 m/s 746 mmHg 70%
    08:00 +25°C° 0 mm 2 m/s 746 mmHg 62%
    09:00 +27°C° 0 mm 3 m/s 746 mmHg 55%
    10:00 +28°C° 0 mm 3 m/s 745 mmHg 49%
    11:00 +29°C° 0 mm 3 m/s 745 mmHg 42%
    12:00 +30°C° 0 mm 4 m/s 745 mmHg 42%
    13:00 +30°C° 0 mm 4 m/s 745 mmHg 41%
    14:00 +30°C° 0 mm 4 m/s 745 mmHg 41%
    15:00 +30°C° 0 mm 4 m/s 745 mmHg 44%
    16:00 +29°C° 0 mm 3 m/s 745 mmHg 47%
    17:00 +29°C° 0 mm 3 m/s 744 mmHg 51%
    18:00 +27°C° 0 mm 3 m/s 744 mmHg 58%
    19:00 +25°C° 0 mm 2 m/s 745 mmHg 65%
    20:00 +23°C° 0 mm 2 m/s 745 mmHg 73%
    21:00 +21°C° 0 mm 2 m/s 745 mmHg 75%
    22:00 +20°C° 0 mm 2 m/s 745 mmHg 78%
    23:00 +20°C° 0 mm 2 m/s 745 mmHg 81%

    Mâine, 17 Iulie, Marţi

    Timp Temperatura Precipitaţii Vânt Presiune Umiditate
    00:00 +19°C° 0 mm 2 m/s 745 mmHg 82%
    01:00 +19°C° 0 mm 2 m/s 745 mmHg 84%
    02:00 +18°C° 0 mm 2 m/s 745 mmHg 86%
    03:00 +19°C° 0 mm 3 m/s 745 mmHg 83%
    04:00 +19°C° 0 mm 3 m/s 745 mmHg 80%
    05:00 +20°C° 0 mm 3 m/s 745 mmHg 78%
    06:00 +22°C° 0 mm 4 m/s 745 mmHg 71%
    07:00 +23°C° 0 mm 4 m/s 745 mmHg 65%
    08:00 +26°C° 0 mm 5 m/s 745 mmHg 58%
    09:00 +27°C° 0 mm 5 m/s 744 mmHg 55%
    10:00 +28°C° 0 mm 6 m/s 744 mmHg 51%
    11:00 +29°C° 0 mm 6 m/s 744 mmHg 47%
    12:00 +30°C° 0 mm 6 m/s 744 mmHg 47%
    13:00 +30°C° 0 mm 6 m/s 743 mmHg 46%
    14:00 +30°C° 0 mm 6 m/s 743 mmHg 45%
    15:00 +30°C° 0 mm 6 m/s 743 mmHg 48%
    16:00 +29°C° 0 mm 5 m/s 743 mmHg 51%
    17:00 +29°C° 0 mm 5 m/s 743 mmHg 54%
    18:00 +27°C° 0 mm 5 m/s 743 mmHg 59%
    19:00 +26°C° 0 mm 4 m/s 743 mmHg 64%
    20:00 +23°C° 0 mm 4 m/s 743 mmHg 70%
    21:00 +23°C° 0 mm 4 m/s 743 mmHg 73%
    22:00 +22°C° 0 mm 4 m/s 743 mmHg 75%
    23:00 +22°C° 0 mm 4 m/s 743 mmHg 78%

    Poimâine, 18 Iulie, Miercuri

    Timp Temperatura Precipitaţii Vânt Presiune Umiditate
    00:00 +21°C° 0 mm 4 m/s 743 mmHg 80%
    01:00 +21°C° 0 mm 4 m/s 743 mmHg 81%
    02:00 +20°C° 0 mm 4 m/s 743 mmHg 83%
    03:00 +20°C° 0 mm 4 m/s 743 mmHg 82%
    04:00 +20°C° 0 mm 4 m/s 743 mmHg 81%
    05:00 +20°C° 0 mm 4 m/s 743 mmHg 80%
    06:00 +21°C° 0 mm 5 m/s 743 mmHg 75%
    07:00 +23°C° 0 mm 5 m/s 743 mmHg 70%
    08:00 +25°C° 0 mm 5 m/s 743 mmHg 65%
    09:00 +26°C° 0 mm 5 m/s 743 mmHg 60%
    10:00 +27°C° 0 mm 6 m/s 743 mmHg 55%
    11:00 +29°C° 0 mm 6 m/s 743 mmHg 50%
    12:00 +29°C° 0 mm 6 m/s 743 mmHg 49%
    13:00 +29°C° 0 mm 6 m/s 743 mmHg 48%
    14:00 +30°C° 0 mm 6 m/s 742 mmHg 47%
    15:00 +29°C° 0,1 mm 6 m/s 743 mmHg 52%
    16:00 +28°C° 0,1 mm 5 m/s 743 mmHg 56%
    17:00 +27°C° 0,1 mm 5 m/s 743 mmHg 61%
    18:00 +25°C° 0,1 mm 5 m/s 743 mmHg 67%
    19:00 +23°C° 0,1 mm 4 m/s 743 mmHg 73%
    20:00 +21°C° 0,1 mm 4 m/s 743 mmHg 79%
    21:00 +21°C° 0 mm 3 m/s 743 mmHg 81%
    22:00 +20°C° 0 mm 3 m/s 743 mmHg 82%
    23:00 +19°C° 0 mm 3 m/s 743 mmHg 84%

    19 Iulie, Joi

    Timp Temperatura Precipitaţii Vânt Presiune Umiditate
    00:00 +19°C° 0,2 mm 3 m/s 743 mmHg 84%
    01:00 +19°C° 0,2 mm 4 m/s 743 mmHg 85%
    02:00 +18°C° 0,2 mm 4 m/s 742 mmHg 85%
    03:00 +18°C° 1,3 mm 4 m/s 742 mmHg 88%
    04:00 +18°C° 1,3 mm 4 m/s 742 mmHg 92%
    05:00 +18°C° 1,3 mm 4 m/s 742 mmHg 95%
    06:00 +18°C° 0,4 mm 4 m/s 743 mmHg 95%
    07:00 +18°C° 0,4 mm 4 m/s 743 mmHg 94%
    08:00 +19°C° 0,4 mm 4 m/s 743 mmHg 94%
    09:00 +19°C° 0,1 mm 4 m/s 743 mmHg 93%
    10:00 +19°C° 0,1 mm 4 m/s 743 mmHg 92%
    11:00 +20°C° 0,1 mm 4 m/s 743 mmHg 92%
    12:00 +21°C° 0 mm 3 m/s 743 mmHg 88%
    13:00 +22°C° 0 mm 3 m/s 743 mmHg 84%
    14:00 +24°C° 0 mm 3 m/s 743 mmHg 81%
    15:00 +24°C° 0 mm 3 m/s 743 mmHg 79%
    16:00 +24°C° 0 mm 3 m/s 743 mmHg 77%
    17:00 +25°C° 0 mm 3 m/s 743 mmHg 75%
    18:00 +24°C° 0,1 mm 3 m/s 743 mmHg 80%
    19:00 +23°C° 0,1 mm 2 m/s 743 mmHg 86%
    20:00 +21°C° 0,1 mm 2 m/s 743 mmHg 91%
    21:00 +20°C° 0,1 mm 2 m/s 743 mmHg 93%
    22:00 +20°C° 0,1 mm 2 m/s 743 mmHg 95%
    23:00 +19°C° 0,1 mm 2 m/s 743 mmHg 97%

    20 Iulie, Vineri

    Timp Temperatura Precipitaţii Vânt Presiune Umiditate
    00:00 +19°C° 0 mm 2 m/s 743 mmHg 98%
    01:00 +19°C° 0 mm 2 m/s 743 mmHg 98%
    02:00 +18°C° 0 mm 2 m/s 743 mmHg 98%
    03:00 +19°C° 0 mm 2 m/s 743 mmHg 97%
    04:00 +19°C° 0 mm 2 m/s 743 mmHg 97%
    05:00 +19°C° 0 mm 2 m/s 743 mmHg 96%
    06:00 +20°C° 0,1 mm 2 m/s 744 mmHg 92%
    07:00 +21°C° 0,1 mm 3 m/s 744 mmHg 87%
    08:00 +24°C° 0,1 mm 3 m/s 744 mmHg 83%
    09:00 +24°C° 0,6 mm 3 m/s 744 mmHg 82%
    10:00 +25°C° 0,6 mm 3 m/s 744 mmHg 80%
    11:00 +26°C° 0,6 mm 4 m/s 744 mmHg 78%
    12:00 +27°C° 0,3 mm 4 m/s 744 mmHg 73%
    13:00 +27°C° 0,3 mm 4 m/s 743 mmHg 68%
    14:00 +28°C° 0,3 mm 4 m/s 743 mmHg 63%
    15:00 +28°C° 0,3 mm 3 m/s 743 mmHg 65%
    16:00 +28°C° 0,3 mm 3 m/s 743 mmHg 67%
    17:00 +27°C° 0,3 mm 3 m/s 743 mmHg 70%
    18:00 +26°C° 0,1 mm 3 m/s 743 mmHg 76%
    19:00 +25°C° 0,1 mm 2 m/s 743 mmHg 82%
    20:00 +23°C° 0,1 mm 2 m/s 743 mmHg 88%
    21:00 +21°C° 0,1 mm 2 m/s 743 mmHg 90%
    22:00 +21°C° 0,1 mm 2 m/s 743 mmHg 93%
    23:00 +20°C° 0,1 mm 2 m/s 743 mmHg 95%

    21 Iulie, Sâmbătă

    Timp Temperatura Precipitaţii Vânt Presiune Umiditate
    00:00 +20°C° 0,4 mm 2 m/s 743 mmHg 96%
    01:00 +20°C° 0,4 mm 2 m/s 743 mmHg 96%
    02:00 +20°C° 0,4 mm 3 m/s 743 mmHg 97%
    03:00 +20°C° 0 mm 3 m/s 743 mmHg 96%
    04:00 +20°C° 0 mm 3 m/s 743 mmHg 96%
    05:00 +21°C° 0 mm 3 m/s 743 mmHg 95%
    06:00 +22°C° 0,2 mm 3 m/s 743 mmHg 93%
    07:00 +22°C° 0,2 mm 3 m/s 743 mmHg 90%
    08:00 +24°C° 0,2 mm 3 m/s 743 mmHg 87%
    09:00 +26°C° 0,8 mm 3 m/s 743 mmHg 82%
    10:00 +27°C° 0,8 mm 3 m/s 743 mmHg 77%
    11:00 +28°C° 0,8 mm 4 m/s 743 mmHg 71%
    12:00 +29°C° 0,2 mm 4 m/s 743 mmHg 68%
    13:00 +30°C° 0,2 mm 3 m/s 743 mmHg 64%
    14:00 +30°C° 0,2 mm 3 m/s 743 mmHg 61%
    15:00 +30°C° 0,2 mm 3 m/s 743 mmHg 63%
    16:00 +29°C° 0,2 mm 3 m/s 743 mmHg 65%
    17:00 +29°C° 0,2 mm 3 m/s 743 mmHg 68%
    18:00 +28°C° 0,1 mm 3 m/s 743 mmHg 73%
    19:00 +26°C° 0,1 mm 3 m/s 743 mmHg 79%
    20:00 +25°C° 0,1 mm 2 m/s 743 mmHg 85%
    21:00 +24°C° 1 mm 2 m/s 743 mmHg 88%
    22:00 +23°C° 1 mm 2 m/s 743 mmHg 90%
    23:00 +21°C° 1 mm 3 m/s 743 mmHg 93%
    Arată mai mult